TimeEST,TemperatureF,Dew PointF,Humidity,Sea Level PressureIn,VisibilityMPH,Wind Direction,Wind SpeedMPH,Gust SpeedMPH,PrecipitationIn,Events,Conditions,WindDirDegrees,DateUTC
12:53 AM,37.0,30.9,79,30.15,10.0,Calm,Calm,-,N/A,,Clear,0,2012-12-15 05:53:00
1:53 AM,39.9,32.0,73,30.16,10.0,Calm,Calm,-,N/A,,Clear,0,2012-12-15 06:53:00
2:53 AM,37.9,33.1,83,30.16,10.0,Calm,Calm,-,N/A,,Clear,0,2012-12-15 07:53:00
3:53 AM,37.0,34.0,89,30.17,10.0,Calm,Calm,-,N/A,,Clear,0,2012-12-15 08:53:00
4:53 AM,37.0,33.1,86,30.14,10.0,SSE,3.5,-,N/A,,Clear,160,2012-12-15 09:53:00
5:53 AM,37.0,32.0,82,30.15,10.0,South,3.5,-,N/A,,Clear,180,2012-12-15 10:53:00
6:53 AM,37.0,32.0,82,30.17,10.0,Calm,Calm,-,N/A,,Clear,0,2012-12-15 11:53:00
7:53 AM,34.0,30.9,89,30.17,10.0,Calm,Calm,-,N/A,,Clear,0,2012-12-15 12:53:00
8:53 AM,39.0,34.0,82,30.16,10.0,SSE,3.5,-,N/A,,Clear,160,2012-12-15 13:53:00
9:53 AM,44.1,35.1,71,30.14,10.0,Calm,Calm,-,N/A,,Mostly Cloudy,0,2012-12-15 14:53:00
10:53 AM,48.9,36.0,61,30.12,10.0,Variable,4.6,-,N/A,,Partly Cloudy,0,2012-12-15 15:53:00
11:53 AM,52.0,36.0,54,30.06,10.0,South,8.1,-,0.00,,Overcast,170,2012-12-15 16:53:00
12:53 PM,55.9,36.0,47,30.02,10.0,South,8.1,17.3,N/A,,Scattered Clouds,170,2012-12-15 17:53:00
1:53 PM,55.9,36.0,47,30.00,10.0,South,12.7,17.3,N/A,,Overcast,180,2012-12-15 18:53:00
2:53 PM,55.9,37.0,49,29.99,10.0,South,4.6,-,N/A,,Overcast,170,2012-12-15 19:53:00
3:53 PM,55.0,41.0,59,29.96,10.0,SSE,5.8,-,0.00,,Overcast,150,2012-12-15 20:53:00
4:53 PM,55.0,39.9,57,29.95,10.0,South,9.2,-,0.00,Rain,Light Rain,180,2012-12-15 21:53:00
5:53 PM,52.0,43.0,71,29.93,10.0,SE,3.5,-,0.02,Rain,Light Rain,140,2012-12-15 22:53:00
6:53 PM,53.1,39.0,59,29.92,10.0,South,4.6,-,0.00,,Overcast,170,2012-12-15 23:53:00
7:53 PM,55.0,39.9,57,29.94,10.0,SSW,6.9,-,0.00,,Overcast,200,2012-12-16 00:53:00
8:53 PM,54.0,41.0,62,29.91,10.0,South,5.8,-,N/A,,Mostly Cloudy,190,2012-12-16 01:53:00
9:53 PM,55.0,42.1,62,29.91,10.0,SSW,6.9,-,N/A,,Overcast,200,2012-12-16 02:53:00
10:19 PM,55.4,44.6,67,29.91,10.0,SSW,8.1,23.0,N/A,,Overcast,200,2012-12-16 03:19:00
10:53 PM,55.0,46.0,72,29.91,10.0,South,13.8,21.9,N/A,,Overcast,180,2012-12-16 03:53:00
11:53 PM,54.0,46.0,75,29.92,10.0,SSW,4.6,-,N/A,,Overcast,210,2012-12-16 04:53:00